K5NCO Weather Reports


time (UTC)temp
C
wind
direction
speed
KPH
gust
KPH
rain 1hr
cm
rain 24hr
cm
rain mn
cm
humidity
%
barometer
mb
20260509174009 28 186 0.0 1.6 0.00 0.00 0.00 73 1012.3
20260509173503 28 224 9.7 9.7 0.00 0.00 0.00 73 1012.5
20260509173000 28 255 3.2 4.8 0.00 0.00 0.00 75 1012.5
20260509172457 28 241 6.4 6.4 0.00 0.00 0.00 74 1012.7
20260509171952 27 281 4.8 4.8 0.00 0.00 0.00 75 1012.7
20260509171449 28 25 0.0 1.6 0.00 0.00 0.00 75 1012.6
20260509170945 28 282 6.4 6.4 0.00 0.00 0.00 74 1012.9
20260509170441 28 199 3.2 4.8 0.00 0.00 0.00 73 1012.8
20260509165937 28 213 6.4 6.4 0.00 0.00 0.00 75 1013.0
20260509165436 28 270 11.3 12.9 0.00 0.00 0.00 74 1013.0
20260509164932 28 222 0.0 0.0 0.00 0.00 0.00 74 1012.9
20260509164428 28 242 6.4 6.4 0.00 0.00 0.00 77 1012.8
20260509163924 28 310 0.0 1.6 0.00 0.00 0.00 77 1012.7
20260509163422 27 243 4.8 6.4 0.00 0.00 0.00 78 1013.0
20260509162920 27 227 9.7 11.3 0.00 0.00 0.00 78 1013.0
20260509162419 26 303 6.4 6.4 0.00 0.00 0.00 80 1013.0
20260509161915 26 312 4.8 4.8 0.00 0.00 0.00 82 1013.1
20260509161411 27 293 3.2 3.2 0.00 0.00 0.00 81 1012.9
20260509160907 26 237 0.0 0.0 0.00 0.00 0.00 82 1012.8
20260509160403 26 228 9.7 11.3 0.00 0.00 0.00 81 1012.8
20260509155858 26 213 6.4 9.7 0.00 0.00 0.00 84 1012.7
20260509155355 26 199 8.0 12.9 0.00 0.00 0.00 85 1012.7
20260509154851 26 170 12.9 16.1 0.00 0.00 0.00 85 1012.7
20260509154348 26 196 11.3 12.9 0.00 0.00 0.00 85 1012.7
20260509153845 25 157 12.9 12.9 0.00 0.00 0.00 87 1012.9
20260509153342 25 206 6.4 9.7 0.00 0.00 0.00 88 1012.8
20260509152839 25 238 4.8 6.4 0.00 0.00 0.00 88 1012.8
20260509152334 25 161 11.3 14.5 0.00 0.00 0.00 89 1012.5
20260509151832 25 162 9.7 11.3 0.00 0.00 0.00 88 1012.3
20260509151328 25 151 14.5 20.9 0.00 0.00 0.00 88 1012.0
20260509150827 25 190 9.7 14.5 0.00 0.00 0.00 88 1012.1
20260509150324 25 185 12.9 16.1 0.00 0.00 0.00 88 1012.2
20260509145821 25 203 9.7 14.5 0.00 0.00 0.00 89 1012.3
20260509145316 25 234 9.7 12.9 0.00 0.00 0.00 88 1012.4
20260509144812 25 155 12.9 16.1 0.00 0.00 0.00 88 1012.3
20260509144309 25 145 9.7 12.9 0.00 0.00 0.00 88 1012.2
20260509143806 25 176 6.4 9.7 0.00 0.00 0.00 88 1012.5
20260509143258 25 249 8.0 11.3 0.00 0.00 0.00 87 1012.1
20260509142754 26 157 8.0 9.7 0.00 0.00 0.00 86 1011.9
20260509142250 26 103 6.4 9.7 0.00 0.00 0.00 85 1011.8
20260509141746 26 173 3.2 4.8 0.00 0.00 0.00 85 1012.2
20260509141243 25 97 1.6 4.8 0.00 0.00 0.00 87 1011.8
20260509140740 25 172 6.4 9.7 0.00 0.00 0.00 88 1011.6
20260509140237 25 149 4.8 6.4 0.00 0.00 0.00 88 1011.6
20260509135734 25 184 9.7 11.3 0.00 0.00 0.00 88 1011.7
20260509135232 24 181 6.4 6.4 0.00 0.00 0.00 90 1011.2
20260509134729 24 192 12.9 17.7 0.00 0.00 0.00 90 1011.5
20260509134226 24 193 6.4 6.4 0.00 0.00 0.00 91 1011.7
20260509133724 23 259 9.7 12.9 0.00 0.00 0.00 92 1011.8
20260509133220 23 184 8.0 9.7 0.00 0.00 0.00 93 1011.9
20260509132719 23 194 9.7 11.3 0.00 0.00 0.00 94 1011.8
20260509132217 23 207 6.4 9.7 0.00 0.00 0.00 95 1011.9
20260509131713 22 177 8.0 9.7 0.00 0.00 0.00 96 1012.0
20260509131210 22 177 3.2 4.8 0.00 0.00 0.00 97 1012.0
20260509130706 22 164 6.4 6.4 0.00 0.00 0.00 98 1012.1
20260509130202 22 176 9.7 11.3 0.00 0.00 0.00 99 1012.2
20260509125658 22 193 3.2 3.2 0.00 0.00 0.00 99 1012.4
20260509125155 22 172 1.6 3.2 0.00 0.00 0.00 99 1012.2
20260509124652 22 237 0.0 1.6 0.00 0.00 0.00 99 1012.3
20260509124149 22 214 1.6 3.2 0.00 0.00 0.00 99 1012.3
20260509123647 22 218 0.0 0.0 0.00 0.00 0.00 99 1012.3
20260509123144 22 262 0.0 0.0 0.00 0.00 0.00 99 1012.2
20260509122639 21 318 0.0 1.6 0.00 0.00 0.00 99 1012.2
20260509122136 21 293 3.2 3.2 0.00 0.00 0.00 99 1011.9
20260509121633 21 330 1.6 3.2 0.00 0.00 0.00 99 1011.9
20260509121131 21 331 0.0 0.0 0.00 0.00 0.00 99 1012.1
20260509120628 21 264 3.2 4.8 0.00 0.00 0.00 99 1012.1
20260509120127 21 304 1.6 1.6 0.00 0.00 0.00 99 1012.2
20260509115623 21 348 4.8 6.4 0.00 0.00 0.00 99 1012.4
20260509115121 21 64 0.0 0.0 0.00 0.00 0.00 99 1012.0
20260509114619 21 126 1.6 1.6 0.00 0.00 0.00 99 1012.1
20260509114118 21 148 3.2 3.2 0.00 0.00 0.00 99 1012.4
20260509113616 22 147 1.6 3.2 0.00 0.00 0.00 99 1012.7
20260509113113 22 340 0.0 0.0 0.00 0.00 0.00 99 1012.8
20260509112609 22 357 0.0 1.6 0.00 0.00 0.00 99 1013.0
20260509112106 22 11 0.0 0.0 0.00 0.00 0.00 99 1013.1
20260509111603 22 328 6.4 6.4 0.00 0.00 0.00 99 1013.2
20260509111100 22 317 4.8 6.4 0.00 0.00 0.00 99 1013.4
20260509110557 22 294 4.8 4.8 0.00 0.00 0.00 99 1013.4
20260509110054 22 332 3.2 4.8 0.00 0.00 0.00 99 1013.5
20260509105553 22 323 1.6 1.6 0.00 0.00 0.00 99 1013.5
20260509105050 21 341 3.2 3.2 0.00 0.00 0.00 99 1013.5
20260509104547 21 326 3.2 3.2 0.00 0.00 0.00 99 1013.5
20260509104043 21 303 1.6 1.6 0.00 0.00 0.00 99 1013.4
20260509103541 21 334 4.8 4.8 0.00 0.00 0.00 99 1013.6
20260509103039 21 334 4.8 6.4 0.00 0.00 0.00 99 1013.5
20260509102536 21 331 0.0 0.0 0.00 0.00 0.00 99 1013.4
20260509102033 21 308 0.0 0.0 0.00 0.00 0.00 99 1013.6
20260509101529 21 324 1.6 3.2 0.00 0.00 0.00 99 1013.2
20260509101026 21 331 1.6 3.2 0.00 0.00 0.00 99 1013.2
20260509100523 21 5 1.6 3.2 0.00 0.00 0.00 99 1012.9
20260509100021 21 344 3.2 3.2 0.00 0.00 0.00 99 1012.9
20260509095517 21 117 0.0 0.0 0.00 0.00 0.00 99 1012.5
20260509095015 21 117 0.0 0.0 0.00 0.00 0.00 99 1012.4
20260509094511 21 117 0.0 0.0 0.00 0.00 0.00 99 1012.2
20260509094008 21 117 0.0 0.0 0.00 0.00 0.00 99 1012.1
20260509093506 21 117 0.0 0.0 0.00 0.00 0.00 99 1011.9
20260509093004 21 117 0.0 0.0 0.00 0.00 0.00 99 1011.8
20260509092501 21 201 0.0 0.0 0.00 0.00 0.00 99 1011.9
20260509092000 21 201 0.0 0.0 0.00 0.00 0.00 99 1011.8
20260509091456 21 201 0.0 1.6 0.00 0.00 0.00 99 1011.8
20260509090953 21 130 0.0 0.0 0.00 0.00 0.00 99 1011.7
20260509090451 21 131 0.0 0.0 0.00 0.00 0.00 99 1011.6
20260509085948 21 126 0.0 0.0 0.00 0.00 0.00 99 1011.7
20260509085444 21 73 0.0 0.0 0.00 0.00 0.00 99 1011.7
20260509084940 21 62 0.0 0.0 0.00 0.00 0.00 99 1012.0
20260509084432 21 63 0.0 0.0 0.00 0.00 0.00 99 1012.1
20260509083930 21 63 0.0 0.0 0.00 0.00 0.00 99 1012.2
20260509083427 21 89 1.6 1.6 0.00 0.00 0.00 99 1012.2
20260509082924 21 174 0.0 0.0 0.00 0.00 0.00 99 1012.5
20260509082421 21 140 1.6 1.6 0.00 0.00 0.00 99 1012.4
20260509081917 21 94 1.6 1.6 0.00 0.00 0.00 99 1012.1
20260509081415 21 86 0.0 0.0 0.00 0.00 0.00 99 1012.1
20260509080912 21 31 0.0 0.0 0.00 0.00 0.00 99 1012.0
20260509080410 21 70 0.0 1.6 0.00 0.00 0.00 99 1012.2
20260509075908 21 38 0.0 0.0 0.00 0.00 0.00 99 1012.4
20260509075405 21 25 0.0 0.0 0.00 0.00 0.00 99 1012.5
20260509074902 22 45 0.0 0.0 0.00 0.00 0.00 99 1012.4
20260509074400 22 22 0.0 0.0 0.00 0.00 0.00 99 1012.4
20260509073856 22 73 1.6 3.2 0.00 0.00 0.00 99 1012.4
20260509073353 22 68 0.0 0.0 0.00 0.00 0.00 99 1012.6
20260509072849 22 67 0.0 0.0 0.00 0.00 0.00 99 1012.5
20260509072346 22 74 0.0 1.6 0.00 0.00 0.00 98 1012.7
20260509071842 22 52 0.0 0.0 0.00 0.00 0.00 98 1012.6
20260509071339 22 55 0.0 1.6 0.00 0.00 0.00 98 1012.9
20260509070837 22 112 1.6 3.2 0.00 0.00 0.00 98 1012.8
20260509070333 22 115 3.2 3.2 0.00 0.00 0.00 98 1012.9
20260509065830 22 81 0.0 0.0 0.00 0.00 0.00 98 1012.8
20260509065326 22 81 0.0 0.0 0.00 0.00 0.00 98 1012.5
20260509064822 22 79 1.6 3.2 0.00 0.00 0.00 98 1012.6
20260509064320 22 74 0.0 1.6 0.00 0.00 0.00 97 1012.6
20260509063817 22 110 1.6 3.2 0.00 0.00 0.00 97 1012.4
20260509063313 22 107 3.2 3.2 0.00 0.00 0.00 97 1012.9
20260509062810 22 117 4.8 6.4 0.00 0.00 0.00 97 1012.7
20260509062308 22 96 3.2 4.8 0.00 0.00 0.00 96 1012.5
20260509061804 22 116 4.8 6.4 0.00 0.00 0.00 96 1012.3
20260509061302 22 116 4.8 6.4 0.00 0.00 0.00 95 1012.2
20260509060759 22 137 6.4 6.4 0.00 0.00 0.00 95 1012.2
20260509060255 22 130 6.4 9.7 0.00 0.00 0.00 95 1012.0
20260509055746 22 104 8.0 9.7 0.00 0.00 0.00 95 1012.1
20260509055241 22 141 8.0 9.7 0.00 0.00 0.00 95 1012.2
20260509054738 22 127 12.9 14.5 0.00 0.00 0.00 95 1012.2
20260509054235 22 107 4.8 4.8 0.00 0.00 0.00 95 1012.2
20260509053734 22 180 6.4 6.4 0.00 0.00 0.00 94 1011.8
20260509053230 22 117 12.9 12.9 0.00 0.00 0.00 94 1011.6
20260509052728 22 84 9.7 11.3 0.00 0.00 0.00 94 1011.3
20260509052226 22 109 12.9 16.1 0.00 0.00 0.00 93 1011.3
20260509051723 22 175 4.8 12.9 0.00 0.00 0.00 93 1011.3
20260509051221 22 124 9.7 11.3 0.00 0.00 0.00 93 1011.3
20260509050718 22 136 1.6 3.2 0.00 0.00 0.00 92 1011.1
20260509050214 23 169 3.2 4.8 0.00 0.00 0.00 92 1011.2
20260509045711 23 128 4.8 4.8 0.00 0.00 0.00 92 1011.3
20260509045208 23 139 0.0 0.0 0.00 0.00 0.00 92 1011.3
20260509044705 23 149 4.8 4.8 0.00 0.00 0.00 91 1011.5
20260509044203 23 171 6.4 9.7 0.00 0.00 0.00 91 1011.5
20260509043659 23 154 6.4 6.4 0.00 0.00 0.00 91 1011.5
20260509043155 23 136 6.4 6.4 0.00 0.00 0.00 91 1011.7
20260509042652 23 124 3.2 3.2 0.00 0.00 0.00 91 1011.6
20260509042148 23 136 4.8 6.4 0.00 0.00 0.00 91 1011.6
20260509041644 23 149 4.8 4.8 0.00 0.00 0.00 91 1011.6
20260509041142 23 131 8.0 9.7 0.00 0.00 0.00 90 1011.9
20260509040640 23 126 3.2 4.8 0.00 0.00 0.00 90 1011.9
20260509040137 23 86 3.2 4.8 0.00 0.00 0.00 90 1011.8
20260509035634 23 114 8.0 9.7 0.00 0.00 0.00 90 1012.0
20260509035130 23 130 4.8 6.4 0.00 0.00 0.00 90 1011.8
20260509034628 23 101 6.4 9.7 0.00 0.00 0.00 90 1011.7
20260509034125 23 148 0.0 1.6 0.00 0.00 0.00 90 1011.5
20260509033622 23 159 6.4 6.4 0.00 0.00 0.00 90 1011.5
20260509033119 23 162 4.8 4.8 0.00 0.00 0.00 90 1011.5
20260509032616 23 124 3.2 3.2 0.00 0.00 0.00 90 1011.3
20260509032113 23 148 1.6 1.6 0.00 0.00 0.00 90 1011.3
20260509031611 23 146 3.2 4.8 0.00 0.00 0.00 90 1011.5
20260509031108 23 139 3.2 6.4 0.00 0.00 0.00 90 1011.4
20260509030606 23 156 3.2 3.2 0.00 0.00 0.00 90 1011.2
20260509025559 23 113 1.6 1.6 0.00 0.00 0.00 89 1011.2
20260509025054 23 131 1.6 3.2 0.00 0.00 0.00 89 1011.4
20260509024550 23 86 3.2 4.8 0.00 0.00 0.00 89 1011.4
20260509024047 23 70 1.6 1.6 0.00 0.00 0.00 88 1011.4
20260509023545 23 95 4.8 4.8 0.00 0.00 0.00 88 1011.4
20260509023041 23 96 4.8 4.8 0.00 0.00 0.00 88 1011.3
20260509022538 23 64 4.8 6.4 0.00 0.00 0.00 88 1011.0
20260509022036 23 100 6.4 9.7 0.00 0.00 0.00 88 1011.0
20260509021533 23 105 9.7 11.3 0.00 0.00 0.00 87 1010.8
20260509021029 23 91 6.4 6.4 0.00 0.00 0.00 87 1010.8
20260509020528 23 122 3.2 3.2 0.00 0.00 0.00 87 1010.5
20260509020024 23 132 3.2 3.2 0.00 0.00 0.00 87 1010.8
20260509015523 24 134 6.4 6.4 0.00 0.00 0.00 86 1010.7
20260509015020 24 102 8.0 9.7 0.00 0.00 0.00 86 1010.9
20260509014516 24 116 9.7 11.3 0.00 0.00 0.00 86 1010.4
20260509014007 24 121 8.0 9.7 0.00 0.00 0.00 86 1010.6
20260509013504 24 75 6.4 11.3 0.00 0.00 0.00 85 1010.4
20260509013000 24 113 9.7 11.3 0.00 0.00 0.00 85 1010.5
20260509012456 24 91 4.8 4.8 0.00 0.00 0.00 85 1010.4
20260509011953 25 122 6.4 6.4 0.00 0.00 0.00 85 1010.3
20260509011451 25 102 3.2 4.8 0.00 0.00 0.00 85 1010.3
20260509010948 25 103 6.4 9.7 0.00 0.00 0.00 84 1010.5
20260509010446 25 98 4.8 6.4 0.00 0.00 0.00 84 1010.6
20260509005942 25 113 6.4 9.7 0.00 0.00 0.00 84 1010.5
20260509005440 25 94 3.2 4.8 0.00 0.00 0.00 83 1010.5
20260509004935 25 76 8.0 12.9 0.00 0.00 0.00 83 1010.3
20260509004431 25 82 9.7 11.3 0.00 0.00 0.00 83 1010.3
20260509003929 25 88 4.8 6.4 0.00 0.00 0.00 83 1010.4
20260509003427 25 64 4.8 4.8 0.00 0.00 0.00 82 1010.4
20260509002923 25 81 3.2 6.4 0.00 0.00 0.00 82 1010.5
20260509002422 25 101 6.4 9.7 0.00 0.00 0.00 82 1010.4
20260509001918 25 111 6.4 9.7 0.00 0.00 0.00 82 1010.4
20260509001415 25 113 6.4 9.7 0.00 0.00 0.00 82 1010.5
20260509000912 25 87 3.2 4.8 0.00 0.00 0.00 82 1010.4
20260509000410 25 11 1.6 1.6 0.00 0.00 0.00 82 1010.6
20260508235905 25 43 1.6 4.8 0.00 0.00 0.00 81 1010.4
20260508235403 25 96 4.8 6.4 0.00 0.00 0.00 80 1010.5
20260508234900 25 38 3.2 3.2 0.00 0.00 0.00 80 1010.4
20260508234356 25 83 8.0 11.3 0.00 0.00 0.00 80 1010.3
20260508233855 25 101 9.7 12.9 0.00 0.00 0.00 80 1010.5
20260508233354 25 104 8.0 12.9 0.00 0.00 0.00 80 1010.4
20260508232850 25 80 4.8 4.8 0.00 0.00 0.00 80 1010.6
20260508232347 25 93 6.4 6.4 0.00 0.00 0.00 80 1010.5
20260508231845 25 82 0.0 0.0 0.00 0.00 0.00 81 1010.4
20260508231341 25 125 1.6 3.2 0.00 0.00 0.00 81 1010.3
20260508230838 25 100 9.7 11.3 0.00 0.00 0.00 81 1010.3
20260508230334 25 87 6.4 6.4 0.00 0.00 0.00 81 1010.5
20260508225832 25 58 0.0 3.2 0.00 0.00 0.00 82 1010.5
20260508225328 25 89 6.4 11.3 0.00 0.00 0.00 82 1010.5
20260508224827 25 83 6.4 6.4 0.00 0.00 0.00 82 1010.6
20260508224324 25 16 1.6 3.2 0.00 0.00 0.00 82 1010.5
20260508223821 25 66 6.4 11.3 0.00 0.00 0.00 81 1010.5
20260508223318 25 68 3.2 3.2 0.00 0.00 0.00 81 1010.4
20260508222816 25 93 8.0 14.5 0.00 0.00 0.00 81 1010.3
20260508222313 25 66 4.8 9.7 0.00 0.00 0.00 81 1010.7
20260508221809 25 354 4.8 9.7 0.00 0.00 0.00 81 1010.5
20260508221305 25 16 4.8 9.7 0.00 0.00 0.00 80 1010.5
20260508220801 25 52 4.8 9.7 0.00 0.00 0.00 79 1010.6
20260508220258 25 69 12.9 14.5 0.00 0.00 0.00 80 1010.5
20260508215755 25 35 3.2 9.7 0.00 0.00 0.00 80 1010.6
20260508215251 25 71 8.0 9.7 0.00 0.00 0.00 80 1010.6
20260508214749 25 46 8.0 11.3 0.00 0.00 0.00 80 1010.7
20260508214246 25 67 3.2 6.4 0.00 0.00 0.00 79 1010.9
20260508213742 25 23 3.2 4.8 0.00 0.00 0.00 79 1010.8
20260508213238 25 75 1.6 3.2 0.00 0.00 0.00 81 1010.8
20260508212730 25 31 4.8 6.4 0.00 0.00 0.00 79 1010.7
20260508212226 25 68 6.4 12.9 0.00 0.00 0.00 78 1011.0
20260508211722 25 14 0.0 0.0 0.00 0.00 0.00 79 1011.1
20260508211218 25 103 3.2 4.8 0.00 0.00 0.00 79 1011.1
20260508210715 26 101 6.4 9.7 0.00 0.00 0.00 78 1011.2
20260508210212 25 52 1.6 4.8 0.00 0.00 0.00 79 1011.5
20260508205709 25 47 6.4 9.7 0.00 0.00 0.00 78 1011.4
20260508205205 25 79 3.2 4.8 0.00 0.00 0.00 80 1011.4
20260508204701 25 67 9.7 12.9 0.00 0.00 0.00 78 1011.5
20260508204158 25 325 3.2 4.8 0.00 0.00 0.00 78 1011.5
20260508203654 26 33 6.4 6.4 0.00 0.00 0.00 77 1011.8
20260508203150 25 327 0.0 1.6 0.00 0.00 0.00 79 1011.5
20260508202647 25 34 3.2 4.8 0.00 0.00 0.00 80 1011.6
20260508202144 25 165 3.2 4.8 0.00 0.00 0.00 78 1011.8
20260508201641 25 359 6.4 9.7 0.00 0.00 0.00 77 1011.9
20260508201137 24 56 1.6 3.2 0.00 0.00 0.00 80 1011.9
20260508200634 24 55 4.8 6.4 0.00 0.00 0.00 80 1012.1
20260508200130 23 76 3.2 4.8 0.00 0.00 0.00 79 1012.3
20260508195627 23 49 4.8 6.4 0.00 0.00 0.00 80 1012.2
20260508195123 24 53 6.4 9.7 0.00 0.00 0.00 79 1012.3
20260508194620 23 31 1.6 3.2 0.00 0.00 0.00 79 1012.5
20260508194117 23 40 8.0 11.3 0.00 0.00 0.00 79 1012.4
20260508193614 24 56 3.2 4.8 0.00 0.00 0.00 79 1012.5
20260508193110 23 81 6.4 6.4 0.00 0.00 0.00 78 1012.5
20260508192607 25 85 9.7 11.3 0.00 0.00 0.00 77 1012.4
20260508192104 25 76 3.2 4.8 0.00 0.00 0.00 77 1012.6
20260508191601 24 81 12.9 17.7 0.00 0.00 0.00 77 1012.5
20260508191057 24 97 6.4 9.7 0.00 0.00 0.00 77 1012.7
20260508190549 25 68 4.8 4.8 0.00 0.00 0.00 76 1012.5
20260508190045 25 24 0.0 0.0 0.00 0.00 0.00 77 1012.8
20260508185543 24 21 8.0 9.7 0.00 0.00 0.00 77 1012.7
20260508185040 23 353 4.8 6.4 0.00 0.00 0.00 77 1012.7
20260508184537 23 23 6.4 11.3 0.00 0.00 0.00 77 1012.9
20260508184034 23 71 6.4 11.3 0.00 0.00 0.00 77 1013.2
20260508183531 23 142 3.2 3.2 0.00 0.00 0.00 78 1013.0
20260508183027 23 55 3.2 4.8 0.00 0.00 0.00 77 1013.2
20260508182523 24 340 4.8 4.8 0.00 0.00 0.00 75 1013.5
20260508182020 23 149 3.2 4.8 0.00 0.00 0.00 77 1013.4
20260508181515 24 39 0.0 1.6 0.00 0.00 0.00 76 1013.5
20260508181013 23 315 1.6 3.2 0.00 0.00 0.00 77 1013.5
20260508180509 23 72 3.2 3.2 0.00 0.00 0.00 76 1013.8
20260508180006 24 38 6.4 9.7 0.00 0.00 0.00 75 1013.8
20260508175502 23 23 1.6 1.6 0.00 0.00 0.00 77 1013.9
20260508175000 22 14 1.6 1.6 0.00 0.00 0.00 79 1013.8
20260508174457 22 89 9.7 11.3 0.00 0.00 0.00 78 1014.0